Regional Weather Roundup
Issued by NWS Grand Forks, ND

Home | Current Version | Previous Version | Graphics & Text | Print | Product List | Glossary On
Versions: 1 2 3 4 5 6 7 8 9 10 11 12 13 14 15 16 17 18 19 20 21 22 23 24 25 26 27 28 29 30 31 32 33 34 35 36 37 38 39 40 41 42 43 44 45 46 47 48 49 50
060
ASUS43 KFGF 091810
RWRFGF
PRAIRIE TO PINES  WEATHER ROUNDUP
NATIONAL WEATHER SERVICE EASTERN NORTH DAKOTA/GRAND FORKS ND
1200 PM CST TUE FEB 09 2016

 **SATELLITE DATA USED TO AUGMENT SKY COVER AT AUTOMATED STATIONS**
 *****  WEATHER ACROSS EASTERN NORTH DAKOTA  *****

CITY           SKY/WX    TMP DP  RH WIND       PRES   REMARKS
GRAND FORKS    CLOUDY    11   3  70 N15       30.31S WCI  -5
6HR MIN TEMP:  11; 6HR MAX TEMP:  12; 6HR PCP: TRACE;

GRAND FRKS AFB CLOUDY    10   3  72 N12       30.29F WCI  -4
DEVILS LAKE    CLOUDY    16   8  71 E9        30.25F WCI   4
6HR MIN TEMP:  14; 6HR MAX TEMP:  17;

FARGO          CLOUDY    13   5  70 N15       30.29F WCI  -3
WAHPETON ARPT  CLOUDY    14   5  67 N14G20    30.28F WCI  -1
$$

 ***** WEATHER ACROSS CENTRAL AND WESTERN NORTH DAKOTA  *****

CITY           SKY/WX    TMP DP  RH WIND       PRES   REMARKS
BISMARCK       CLOUDY    34  10  37 SW9       30.23F
6HR MIN TEMP:  25; 6HR MAX TEMP:  34;

MINOT          MOSUNNY   35  15  44 W8        30.20S
6HR MIN TEMP:  26; 6HR MAX TEMP:  35;

JAMESTOWN      CLOUDY    21   7  54 NE7       30.23F WCI  12
6HR MIN TEMP:  14; 6HR MAX TEMP:  21;

MINOT AFB      MOSUNNY   34  17  50 NW1       30.19F
GARRISON         N/A     30  15  53 SW8       30.19F WCI  22
WILLISTON      CLOUDY    33  23  66 N7        30.21F
6HR MIN TEMP:  25; 6HR MAX TEMP:  33;

DICKINSON      CLOUDY    35  21  56 NW16      30.16S
6HR MIN TEMP:  19; 6HR MAX TEMP:  35;

HETTINGER      CLOUDY    40  24  53 NW15      30.18F
6HR MIN TEMP:  25; 6HR MAX TEMP:  40;

$$

 *****  OTHER AIRPORT OBSERVATIONS IN OUR AREA  *****

CITY           SKY/WX    TMP DP  RH WIND       PRES   REMARKS
WALHALLA       FAIR       9   7  92 N13       30.32F WCI  -7
GRAFTON AIRPOR CLOUDY     9   5  85 N10       30.33F HAZE    WCI  -6
VALLEY CITY AR CLOUDY    18   7  62 N10       30.27F WCI   6
CANDO          NOT AVBL
CAVALIER APRT  FLURRIES   9   1  72 N9        30.32F WCI  -5
GWINNER        CLOUDY    21  10  63 N13       30.27S WCI   9
ROLLA          CLOUDY    16   7  67 NE9       30.24R WCI   4
 ***** THE ABOVE OBSERVATIONS ARE NON NWS ARE NOT QUALITY
       CONTROLLED AND MAY MIS-REPORT RAIN FOR SNOW...
$$

  *****  WEATHER ACROSS NORTHERN MINNESOTA  *****

CITY           SKY/WX    TMP DP  RH WIND       PRES   REMARKS
FLAG ISLAND    SUNNY      3  -2  78 NW14      30.22F WCI -15
WARROAD        PTSUNNY    1  -2  85 W7        30.25F WCI -11
ROSEAU         SUNNY      1  -4  78 W5        30.27S WCI  -8
HALLOCK        MOSUNNY    7   0  72 N13       30.31F WCI  -9
THF RVR FALLS  SUNNY      9   0  66 N13       30.26F WCI  -7
BAUDETTE       CLOUDY     2  -5  72 NW16      30.20F WCI -18
6HR MIN TEMP:  -6; 6HR MAX TEMP:   2;

WASKISH        SUNNY      5  -2  72 NW9       30.20S WCI  -9
CROOKSTON      SUNNY      9   3  78 N14       30.30F WCI  -8
STEPHEN NDAWN    N/A      9   3  78 N12         N/A  WCI  -6
GREENBUSH NDAW   N/A      3  -2  78 N8          N/A  WCI -10
$$
  *****  WEATHER ACROSS CENTRAL AND WEST MINNESOTA  *****

CITY           SKY/WX    TMP DP  RH WIND       PRES   REMARKS
FOSSTON        SUNNY     10   0  61 N8        30.23F WCI  -1
BEMIDJI        MOSUNNY    2  -5  75 NW12      30.19S WCI -15
PARK RAPIDS    SUNNY      9  -2  61 N15       30.15F WCI  -8
6HR MIN TEMP:  -1; 6HR MAX TEMP:   9;

ELBOW LAKE     CLOUDY    10   3  73 NW16G22   30.23F WCI  -7
WADENA         SUNNY      9   0  66 NW13      30.17F WCI  -7
DETROIT LAKES  MOSUNNY   10   3  72 N15       30.22F WCI  -6
MOORHEAD       SUNNY     10   5  79 N15       30.29S WCI  -6
FERGUS FALLS   CLOUDY    10   3  72 N18       30.27F WCI  -8
MORRIS MN      CLOUDY    12   5  73 NW22      30.22S WCI  -7
STAPLES        SUNNY      9  -2  61 NW13      30.16F WCI  -7
$$
  *****  WEATHER ELSEWHERE ACROSS MINNESOTA  *****

CITY           SKY/WX    TMP DP  RH WIND       PRES   REMARKS
DULUTH         MOSUNNY    5  -6  60 N18       30.02F WCI -15
6HR MIN TEMP:  -3; 6HR MAX TEMP:   6;

INTRNTL FALLS  SUNNY      2  -7  66 N13       30.16F WCI -15
6HR MIN TEMP:  -8; 6HR MAX TEMP:   2;

ELY            MOSUNNY    3  -4  72 NW13      30.04S WCI -14
CLOQUET        SUNNY      7  -6  56 NW18      30.05F WCI -12
WHEATON        CLOUDY    16   9  73 NW17G23   30.29S WCI   0
BRAINERD       SUNNY      7  -3  64 N17       30.15F WCI -12
6HR MIN TEMP:   0; 6HR MAX TEMP:   7;

HIBBING        SUNNY      2  -6  69 NW21G26   30.08F WCI -20
6HR MIN TEMP:  -3; 6HR MAX TEMP:   3; 6HR PCP: TRACE;

ALEXANDRIA     MOSUNNY   11   0  61 NW16      30.17F WCI  -6
6HR MIN TEMP:   2; 6HR MAX TEMP:  11;

SAINT CLOUD    SUNNY     11  -1  58 NW17G23   30.15F WCI  -6
6HR MIN TEMP:   3; 6HR MAX TEMP:  11;

MINNEAPOLIS    SUNNY     14   0  53 NW16      30.11F WCI  -2
6HR MIN TEMP:   5; 6HR MAX TEMP:  14;

$$

  *****  WEATHER ACROSS SOUTH DAKOTA  *****

CITY           SKY/WX    TMP DP  RH WIND       PRES   REMARKS
SIOUX FALLS    CLOUDY    18   5  57 N16       30.24S WCI   3
6HR MIN TEMP:   6; 6HR MAX TEMP:  18;

BROOKINGS      CLOUDY    14   6  70 N14       30.22  WCI  -1
WATERTOWN      CLOUDY    18   5  57 NW13      30.21F WCI   5
6HR MIN TEMP:   2; 6HR MAX TEMP:  18;

HURON          CLOUDY    24  10  55 N9        30.29F WCI  14
6HR MIN TEMP:  13; 6HR MAX TEMP:  24;

SISSETON         N/A     18   8  65 N14       30.26S WCI   4
ABERDEEN       SUNNY     29  10  45 NW8       30.27F WCI  21
6HR MIN TEMP:  11; 6HR MAX TEMP:  30;

MITCHELL       CLOUDY    25  12  58 N16       30.31F WCI  12
PIERRE         CLOUDY    29  10  45 SW9       30.27F WCI  20
6HR MIN TEMP:  22; 6HR MAX TEMP:  29;

MOBRIDGE       CLOUDY    32  12  43 SW9       30.22F WCI  24
RAPID CITY     CLOUDY    47  30  51 N17       30.19F
6HR MIN TEMP:  20; 6HR MAX TEMP:  47;

$$

  *****  SOME WEATHER IN NEARBY STATES *****

CITY           SKY/WX    TMP DP  RH WIND       PRES   REMARKS
GLASGOW MT     SUNNY     38  30  73 SW5       30.21F
6HR MIN TEMP:  29; 6HR MAX TEMP:  39;

GREAT FALLS MT SUNNY     56  29  35 SW21      30.28F
6HR MIN TEMP:  40; 6HR MAX TEMP:  56;

CHEYENNE WY    SUNNY     44  22  41 NW23G31   30.31S
6HR MIN TEMP:  34; 6HR MAX TEMP:  44;

SCOTTSBLUFF NE SUNNY     46  29  51 NW15      30.27S
6HR MIN TEMP:  28; 6HR MAX TEMP:  46;

OMAHA NE       MOSUNNY   18   6  59 N21G31    30.28S WCI   1
6HR MIN TEMP:  13; 6HR MAX TEMP:  18;

DES MOINES IA  MOSUNNY   14   4  64 N17       30.15S WCI  -3
6HR MIN TEMP:  10; 6HR MAX TEMP:  14; 6HR PCP: TRACE;

DAVENPORT IA   CLOUDY    16   6  65 NW16      29.97F WCI   1
6HR MIN TEMP:  11; 6HR MAX TEMP:  17;

CHICAGO IL     PTSUNNY   18   8  65 NW13      29.83S WCI   5
6HR MIN TEMP:  15; 6HR MAX TEMP:  18; 6HR PCP: TRACE;

EAU CLAIRE WI  SUNNY      9  -5  53 NW10      30.03S WCI  -5
6HR MIN TEMP:   3; 6HR MAX TEMP:   9;

LA CROSSE WI   SUNNY     11  -1  58 NW15      30.03S WCI  -5
6HR MIN TEMP:   6; 6HR MAX TEMP:  11;

$$

  *****  SOME NATIONAL WEATHER *****

CITY           SKY/WX    TMP DP  RH WIND       PRES   REMARKS
LA GUARDIA NY  PTSUNNY   33  22  63 VRB7      29.59F
6HR MIN TEMP:  28; 6HR MAX TEMP:  34;

RALEIGH NC     PTSUNNY   42  26  53 SW13      29.63F
6HR MIN TEMP:  34; 6HR MAX TEMP:  44;

ATLANTA GA     CLOUDY    36  17  46 W12G25    29.83F
6HR MIN TEMP:  33; 6HR MAX TEMP:  37; 6HR PCP: TRACE;

NEW ORLEANS LA MOSUNNY   54  15  21 W20       30.15F
6HR MIN TEMP:  40; 6HR MAX TEMP:  55;

OKLAHOMA CITY  MOSUNNY   49  19  30 N18       30.28F
ALBUQUERQUE NM SUNNY     49  21  33 N9        30.44S
6HR MIN TEMP:  29; 6HR MAX TEMP:  49;

SALT LAKE CITY SUNNY     36  27  69 CALM      30.60S HAZE
6HR MIN TEMP:  24; 6HR MAX TEMP:  36;

LOS ANGELES CA SUNNY     80  28  15 CALM      30.17S
6HR MIN TEMP:  60; 6HR MAX TEMP:  80;

BOISE ID       CLOUDY    33  27  78 SE7       30.60S
6HR MIN TEMP:  27; 6HR MAX TEMP:  33;

SEATTLE WA     FOG       45  43  93 SE3       30.20S VSB 3/4
6HR MIN TEMP:  38; 6HR C1F1C2F2C3F3C4F4C5F5C6F6C7F7C8F8C9F9CaFaCbFbCcFcCd!



USA.gov is the U.S. government's official web portal to all federal, state and local government web resources and services.